Weather History for Sheringham Point, BC

Change the Weather History Date:

Thursday, January 24, 2013

  Actual Average Record
Temperature  
Mean Temperature 41 °F -  
Max Temperature 45 °F - - ()
Min Temperature 37 °F - - ()
Degree Days  
Heating Degree Days 24    
Moisture  
Dew Point 38 °F    
Average Humidity 85    
Maximum Humidity 93    
Minimum Humidity 76    
Precipitation  
Precipitation 0.08 in - - ()
Sea Level Pressure  
Sea Level Pressure 30.08 in    
Wind  
Wind Speed 19 mph ()    
Max Wind Speed 39 mph    
Max Gust Speed -    
T = Trace of Precipitation, MM = Missing Value Source: Averaged Metar Reports

Daily Weather History Graph

Daily Weather History Graph

Search for Another Location

Airport:

Trip Planner

Search our weather history database for the weather conditions in past years. The results will help you decide how hot, cold, wet, or windy it might be!

Date:

Astronomy

Jan. 24, 2013 Rise Set
Actual Time 7:53 AM PST 5:02 PM PST
Civil Twilight 7:19 AM PST 5:37 PM PST
Nautical Twilight 6:41 AM PST 6:15 PM PST
Astronomical Twilight 6:04 AM PST 6:52 PM PST
Moon 3:07 PM PST (1/24) 5:58 AM PST (1/24)
Length of Visible Light 10h 17m
Length of Day
9h 09m
Waxing Gibbous, 95% of the Moon is Illuminated
Jan 24
Waxing Gibbous
Jan 26
Full
Feb 3
Last Quarter
Feb 9
New
Feb 17
First Quarter

Hourly Weather History & Observations

Time (PST) Temp. Windchill Dew Point Humidity Pressure Visibility Wind Dir Wind Speed Gust Speed Precip Events Conditions
12:00 AM 44.2 °F 34.2 °F 37.2 °F 76% 30.10 in - North 29.9 mph - N/A   Unknown
1:00 AM 44.8 °F 34.8 °F 40.5 °F 85% 30.12 in - North 31.1 mph - N/A   Unknown
2:00 AM 44.4 °F 34.3 °F 38.8 °F 81% 30.14 in - North 31.1 mph - N/A   Unknown
3:00 AM 42.4 °F 30.9 °F 39.2 °F 88% 30.16 in - North 35.7 mph - N/A   Unknown
4:00 AM 42 °F - 39 °F 83% 30.16 in - Calm Calm - -  
4:00 AM 42.3 °F 30.7 °F 38.7 °F 87% 30.16 in - North 35.7 mph - N/A   Unknown
5:00 AM 41.0 °F 29.3 °F 37.6 °F 88% 30.17 in - North 33.4 mph - N/A   Unknown
6:00 AM 42.1 °F 30.0 °F 37.4 °F 83% 30.16 in - North 39.1 mph - N/A   Unknown
7:00 AM 41.9 °F 36.3 °F 36.7 °F 82% 30.16 in - North 9.2 mph - N/A   Unknown
8:00 AM 42.1 °F 38.4 °F 37.0 °F 82% 30.13 in - North 5.8 mph - N/A   Unknown
9:00 AM 42.4 °F 37.5 °F 37.6 °F 83% 30.13 in - North 8.1 mph - N/A   Unknown
10:00 AM 43 °F - 38 °F 77% 30.13 in - Calm Calm - -  
10:00 AM 42.6 °F 37.2 °F 38.1 °F 84% 30.13 in - North 9.2 mph - N/A   Unknown
11:00 AM 43.0 °F 37.2 °F 38.5 °F 84% 30.13 in - North 10.4 mph - N/A   Unknown
12:00 PM 43.3 °F 37.2 °F 37.6 °F 80% 30.09 in - North 11.5 mph - N/A   Unknown
1:00 PM 43.5 °F 37.5 °F 37.2 °F 78% 30.06 in - North 11.5 mph - N/A   Unknown
2:00 PM 43.7 °F 35.4 °F 38.3 °F 81% 30.06 in - North 19.6 mph - N/A   Unknown
3:00 PM 41.7 °F - 38.3 °F 88% 30.04 in - North 2.3 mph - 0.04 in   Unknown
4:00 PM 41 °F - 38 °F 85% 30.03 in - Calm Calm - -  
4:00 PM 41.0 °F - 37.9 °F 89% 30.03 in - North 1.2 mph - 0.05 in   Unknown
5:00 PM 40.3 °F 36.3 °F 37.4 °F 89% 30.01 in - North 5.8 mph - 0.06 in   Unknown
6:00 PM 40.1 °F 38.0 °F 37.6 °F 91% 30.01 in - North 3.5 mph - 0.02 in   Unknown
7:00 PM 40.5 °F 37.3 °F 37.8 °F 90% 29.99 in - North 4.6 mph - 0.02 in   Unknown
8:00 PM 41.2 °F 35.0 °F 38.7 °F 91% 29.98 in - North 10.4 mph - N/A   Unknown
9:00 PM 42.3 °F 40.5 °F 39.0 °F 88% 29.96 in - North 3.5 mph - N/A   Unknown
10:00 PM 43 °F - 40 °F 85% 29.96 in - Calm Calm - -  
10:00 PM 42.6 °F 31.4 °F 39.9 °F 90% 29.96 in - North 34.5 mph - N/A   Unknown
11:00 PM 42.3 °F 30.4 °F 40.3 °F 93% 29.96 in - North 38.0 mph - N/A   Unknown